Regional Weather Roundup
Issued by NWS

Home | Current Version | Previous Version | Graphics & Text | Print | Product List | Glossary On
Versions: 1 2 3 4 5 6 7 8 9 10 11 12 13 14 15 16 17 18 19 20 21 22 23 24 25 26 27 28 29 30 31 32 33 34 35 36 37 38 39 40 41 42 43 44 45 46 47 48 49 50
000
ASUS45 KABQ 050610
RWRNM
WEATHER ROUNDUP FOR NEW MEXICO
NATIONAL WEATHER SERVICE ALBUQUERQUE NM
1200 AM MDT TUE MAY 05 2015

NOTE: "FAIR" MEANS FEW OR NO CLOUDS BELOW 12,000 FEET AGL WITH NO
       SIGNIFICANT WEATHER OR OBSTRUCTIONS TO VISION.

      THIS PRODUCT IS RELEASED AS TWO VERSIONS.  ONE VERSION NEAR
      THE TOP OF THE HOUR CONTAINING PRELIMINARY DATA FROM ALBUQUERQUE
      AND OTHER STATIONS.  A FINAL VERSION WITH ADDITIONAL DATA IS
      ISSUED ABOUT 10 MINUTES AFTER THE HOUR.

NMZ501-503-504-510>518-050700-
NORTHWEST PLATEAU/NORTHCENTRAL MOUNTAINS

CITY           SKY/WX    TMP DP  RH WIND       PRES   REMARKS
FARMINGTON     MOCLDY    54  46  74 SE7       29.97F
6HR MIN TEMP:  52; 6HR MAX TEMP:  57; 6HR PCP: TRACE;

LOS ALAMOS     LGT RAIN  46  46 100 CALM      30.07S
SANTA FE       LGT RAIN  49  45  86 E9        30.02F
6HR MIN TEMP:  49; 6HR MAX TEMP:  61;

TAOS           CLOUDY    48  39  71 SW8       30.07S
ANGEL FIRE     RAIN      40  37  89 SE8       30.09F WCI  34

$$
NMZ402-403-502-505>509-050700-
WESTCENTRAL MOUNTAINS/SOUTHWEST MOUNTAINS

CITY           SKY/WX    TMP DP  RH WIND       PRES   REMARKS
GALLUP         CLOUDY    47  40  76 S13       30.03S
6HR MIN TEMP:  47; 6HR MAX TEMP:  54; 6HR PCP:  0.18;

GRANTS         CLOUDY    45  43  93 S5        30.07S
SILVER CITY      N/A     52  39  62 NW14      30.01S

$$
NMZ407-409-411-412-050700-
SOUTHERN DESERTS

CITY           SKY/WX    TMP DP  RH WIND       PRES   REMARKS
LORDSBURG      FAIR      54  43  66 W9        29.97S
DEMING         PTCLDY    60  42  51 NW12      29.95R
6HR MIN TEMP:  60; 6HR MAX TEMP:  76;

LAS CRUCES     CLOUDY    66  37  34 W5        29.94R
HOLLOMAN AFB   LGT RAIN  61  55  82 W15G24    29.93R
ALAMOGORDO     LGT RAIN  59  55  88 W16G26    29.94R
T OR C         MOCLDY    58  49  72 N5        29.95R
6HR MIN TEMP:  58; 6HR MAX TEMP:  73; 6HR PCP: TRACE;


$$
NMZ519>523-050700-
CENTRAL VALLEYS/CENTRAL HIGHLANDS

CITY           SKY/WX    TMP DP  RH WIND       PRES   REMARKS
ALBUQUERQUE    CLOUDY    56  50  80 N6        29.99F
6HR MIN TEMP:  53; 6HR MAX TEMP:  59; 6HR PCP:  0.13;

DOUBLE EAGLE   CLOUDY    51  49  92 NW3       30.01R
MORIARTY ARPT  CLOUDY    49  46  88 N5        30.02S
6HR MIN TEMP:  48; 6HR MAX TEMP:  56; 6HR PCP:  0.13;

CLINES CORNERS CLOUDY    47  44  90 N10       30.01F
6HR MIN TEMP:  46; 6HR MAX TEMP:  58; 6HR PCP:  0.14;

BELEN          FAIR      51  49  90 NW5       29.98F
6HR MIN TEMP:  51; 6HR MAX TEMP:  62; 6HR PCP:  0.07;

SOCORRO        FAIR      54  52  94 CALM      29.96F
6HR MIN TEMP:  54; 6HR MAX TEMP:  67; 6HR PCP:  0.06;


$$
NMZ524>526-539-540-050700-
SOUTHCENTRAL MOUNTAINS

CITY           SKY/WX    TMP DP  RH WIND       PRES   REMARKS
RUIDOSO        MOCLDY    48  48 100 S3        30.05S

$$
NMZ527>531-050700-
NORTHEAST HIGHLANDS/NORTHEAST PLAINS

CITY           SKY/WX    TMP DP  RH WIND       PRES   REMARKS
LAS VEGAS      HVY RAIN  44  43  96 E9        30.07R FOG
6HR MIN TEMP:  44; 6HR MAX TEMP:  59; 6HR PCP:  1.13;

RATON          CLOUDY    51  46  83 NE7       30.06S
6HR MIN TEMP:  50; 6HR MAX TEMP:  55;

CLAYTON        CLOUDY    54  51  90 NE6       30.03F
6HR MIN TEMP:  54; 6HR MAX TEMP:  56; 6HR PCP:  0.01;


$$
NMZ532>537-050700-
EASTCENTRAL PLAINS

CITY           SKY/WX    TMP DP  RH WIND       PRES   REMARKS
CANNON AFB     NOT AVBL
CLOVIS AIRPORT CLOUDY    54  52  94 SE10      30.03R

$$
NMZ028-029-538-050700-
SOUTHEAST PLAINS

CITY           SKY/WX    TMP DP  RH WIND       PRES   REMARKS
ROSWELL        LGT RAIN  57  54  89 NE9       29.93S
6HR MIN TEMP:  57; 6HR MAX TEMP:  66; 6HR PCP:  0.46;

ARTESIA        DRIZZLE   61  61 100 N13       29.92R
CARLSBAD       TSTM      64  60  87 N5        29.85F
6HR MIN TEMP:  59; 6HR MAX TEMP:  64; 6HR PCP:  0.20;

HOBBS          MOCLDY    57  57 100 NE12      29.92F


$$


USA.gov is the U.S. government's official web portal to all federal, state and local government web resources and services.